COSMOS 2251 DEB, 33805

Orbit data source: Space-Track

COSMOS 2251 DEB, 33805 is space debris in LEO originally from a launch on Wed, 16 Jun 1993 UTC launched from the Plesetsk Missile And Space Complex (PKMTR). The debris from Iridium 33, an American commercial communications satellite, has been tracked extensively since its accidental collision with the defunct Russian satellite Cosmos 2251 in 2009. This event, occurring at high speed in low Earth orbit (LEO), generated thousands of pieces of space debris, significantly increasing the risk of further collisions. The Iridium 33 debris cloud has impacted space traffic management and orbital debris mitigation strategies, making it a subject of ongoing study in space situational awareness.

Loading next visibility...
Identifier
33805, 1993-036AW
Orbit
LEO
Country
Flag of CISCIS
Related business
Manufacturer
Unknown
Mission
Spacecraft
Bus & Motor
Unknown
Mass
Unknown
Launch date (UTC)
1993-06-16 (33 years ago)
Launch vehicle
Unknown
Launch site
Plesetsk Missile And Space Complex (PKMTR)
Object type
Payload
Rocket body
Debris
Shape & HBR
Unknown shape, 0.3 m
Radar Cross Section
Small (<0.1 m²)

Expand to show TLE details & history
Last TLE update: 6 hours ago

TLE from 6 hours ago
0 COSMOS 2251 DEB
1 33805U 93036AW  25354.09531008  .00000709  00000-0  15754-3 0  9996
2 33805  74.0311 297.3377 0059992 124.1773 236.5099 14.57870586893346
Epoch: 2025-12-20T02:17Z
TLE epoch observation values (Epoch: 2025-12-20T02:17:14.790Z)
Latitude
-0.0001°
Longitude
174.09901°
Altitude
726.307 km
Speed
7.48 km/s
True Right ascension
19h 49m 21s
True Declination
0° 00' 00"
Sunlit
Object was in daylight at epoch
Visualization orbit readout
Latitude
Unknown
Longitude
Unknown
Altitude
Unknown
Speed
Unknown
Apparent Right ascension
Unknown
Apparent Declination
Unknown
Sunlit
N/A
Visualization observer readout
Local Sidereal Time
07:18:30
Azimuth
Unknown
Elevation
Unknown
Doppler factor
Unknown
Orbital elements
Apogee altitude
740.107 km
Perigee altitude
655.209 km
Semi-major axis
7,075.795 km
Eccentricity
0.006
Inclination
74.0311°
RAAN
297.3377°
Arg. of periapsis
124.1773°
True anomaly
235.93895°
Mean anomaly
236.5099°
Eccentric anomaly
236.22419°
Mean motion
3.64653 °/min
Orbital period
98.72 mins
BSTAR
0.00015754
Loading maneuver chart data...
Computing Atmospheric mass density...

Documentation

Showing up to 5 results
|